Time,TemperatureF,DewpointF,PressureIn,WindDirection,WindDirectionDegrees,WindSpeedMPH,WindSpeedGustMPH,Humidity,HourlyPrecipIn,Conditions,Clouds,dailyrainin,SoftwareType,DateUTC
2013-06-14 00:01:00,57.6,54.4,26.65,SW,231,2.0,13.0,89,0.00,,,-99.99,VWS V12.07,2013-06-14 04:01:00,
2013-06-14 00:31:00,57.0,54.4,26.64,West,261,8.0,9.0,91,0.00,,,-99.99,VWS V12.07,2013-06-14 04:31:00,
2013-06-14 01:01:00,56.5,53.9,26.64,SW,232,7.0,7.0,91,0.00,,,-99.99,VWS V12.07,2013-06-14 05:01:00,
2013-06-14 01:31:00,56.4,54.7,26.64,South,170,5.0,6.0,94,0.00,,,-99.99,VWS V12.07,2013-06-14 05:31:00,
2013-06-14 02:01:00,57.5,55.2,26.64,West,278,0.0,13.0,92,0.00,,,-99.99,VWS V12.07,2013-06-14 06:01:00,
2013-06-14 02:31:00,57.3,55.0,26.62,West,273,4.0,16.0,92,0.00,,,-99.99,VWS V12.07,2013-06-14 06:31:00,
2013-06-14 03:01:00,57.4,55.1,26.62,West,279,2.0,16.0,92,0.00,,,-99.99,VWS V12.07,2013-06-14 07:01:00,
2013-06-14 03:31:00,57.3,55.0,26.62,SW,219,6.0,18.0,92,0.00,,,-99.99,VWS V12.07,2013-06-14 07:31:00,
2013-06-14 04:01:00,57.4,55.1,26.62,SSW,212,13.0,17.0,92,0.00,,,-99.99,VWS V12.07,2013-06-14 08:01:00,
2013-06-14 04:31:00,57.0,54.7,26.62,WNW,286,6.0,15.0,92,0.00,,,-99.99,VWS V12.07,2013-06-14 08:31:00,
2013-06-14 05:01:00,56.7,54.4,26.63,WSW,245,2.0,7.0,92,0.00,,,-99.99,VWS V12.07,2013-06-14 09:01:00,
2013-06-14 05:31:00,56.5,54.5,26.64,West,269,4.0,6.0,93,0.00,,,-99.99,VWS V12.07,2013-06-14 09:31:00,
2013-06-14 06:01:00,56.7,54.7,26.66,WNW,296,4.0,9.0,93,0.00,,,-99.99,VWS V12.07,2013-06-14 10:01:00,
2013-06-14 06:31:00,57.7,54.5,26.67,WNW,294,8.0,9.0,89,0.00,,,-99.99,VWS V12.07,2013-06-14 10:31:00,
2013-06-14 07:01:00,59.4,55.5,26.67,SSW,199,2.0,7.0,87,0.00,,,-99.99,VWS V12.07,2013-06-14 11:01:00,
2013-06-14 07:31:00,59.9,55.4,26.68,WNW,295,5.0,10.0,85,0.00,,,-99.99,VWS V12.07,2013-06-14 11:31:00,
2013-06-14 08:01:00,60.5,55.7,26.70,West,274,2.0,9.0,84,0.00,,,-99.99,VWS V12.07,2013-06-14 12:01:00,
2013-06-14 08:31:00,61.6,56.7,26.71,West,280,5.0,18.0,84,0.00,,,-99.99,VWS V12.07,2013-06-14 12:31:00,
2013-06-14 09:01:00,62.2,56.6,26.71,South,186,12.0,14.0,82,0.00,,,-99.99,VWS V12.07,2013-06-14 13:01:00,
2013-06-14 09:31:00,62.8,57.6,26.72,West,271,5.0,6.0,83,0.00,,,-99.99,VWS V12.07,2013-06-14 13:31:00,
2013-06-14 10:01:00,63.3,57.0,26.72,WNW,284,4.0,17.0,80,0.00,,,-99.99,VWS V12.07,2013-06-14 14:01:00,
2013-06-14 10:31:00,64.5,57.8,26.73,WSW,255,4.0,11.0,79,0.00,,,-99.99,VWS V12.07,2013-06-14 14:31:00,
2013-06-14 11:01:00,65.6,58.2,26.74,WSW,242,10.0,12.0,77,0.00,,,-99.99,VWS V12.07,2013-06-14 15:01:00,
2013-06-14 11:31:00,66.4,58.2,26.74,NW,307,3.0,6.0,75,0.00,,,-99.99,VWS V12.07,2013-06-14 15:31:00,
2013-06-14 12:01:00,66.9,56.8,26.75,WNW,296,10.0,19.0,70,0.00,,,-99.99,VWS V12.07,2013-06-14 16:01:00,
2013-06-14 12:31:00,66.2,56.1,26.76,WNW,301,0.0,11.0,70,0.00,,,-99.99,VWS V12.07,2013-06-14 16:31:00,
2013-06-14 13:01:00,66.7,57.8,26.76,NNW,332,11.0,11.0,73,0.00,,,-99.99,VWS V12.07,2013-06-14 17:01:00,
2013-06-14 13:31:00,68.4,58.2,26.77,SSE,162,0.0,8.0,70,0.00,,,-99.99,VWS V12.07,2013-06-14 17:31:00,
2013-06-14 14:01:00,66.5,56.8,26.76,South,191,3.0,8.0,71,0.00,,,-99.99,VWS V12.07,2013-06-14 18:01:00,
2013-06-14 14:31:00,66.7,57.8,26.76,NNW,346,4.0,16.0,73,0.00,,,-99.99,VWS V12.07,2013-06-14 18:31:00,
2013-06-14 15:01:00,66.0,56.7,26.77,North,359,0.0,7.0,72,0.00,,,-99.99,VWS V12.07,2013-06-14 19:01:00,
2013-06-14 15:31:00,66.5,58.0,26.76,SSW,206,4.0,6.0,74,0.00,,,-99.99,VWS V12.07,2013-06-14 19:31:00,
2013-06-14 16:02:00,65.6,56.3,26.77,West,269,7.0,7.0,72,0.00,,,-99.99,VWS V12.07,2013-06-14 20:02:00,
2013-06-14 16:31:00,66.0,56.3,26.77,WNW,296,1.0,6.0,71,0.00,,,-99.99,VWS V12.07,2013-06-14 20:31:00,
2013-06-14 17:01:00,66.5,56.8,26.77,WNW,301,8.0,9.0,71,0.00,,,-99.99,VWS V12.07,2013-06-14 21:01:00,
2013-06-14 17:31:00,66.7,56.6,26.78,NW,326,4.0,9.0,70,0.00,,,-99.99,VWS V12.07,2013-06-14 21:31:00,
2013-06-14 18:01:00,66.2,56.5,26.77,NW,308,4.0,7.0,71,0.00,,,-99.99,VWS V12.07,2013-06-14 22:01:00,
2013-06-14 18:31:00,65.2,56.0,26.78,WSW,251,0.0,4.0,72,0.00,,,-99.99,VWS V12.07,2013-06-14 22:31:00,
2013-06-14 19:01:00,64.1,56.0,26.78,WSW,243,0.0,6.0,75,0.00,,,-99.99,VWS V12.07,2013-06-14 23:01:00,
2013-06-14 19:31:00,62.7,55.0,26.78,North,353,0.0,5.0,76,0.00,,,-99.99,VWS V12.07,2013-06-14 23:31:00,
2013-06-14 20:02:00,60.5,55.3,26.80,WNW,286,0.0,3.0,83,0.00,,,-99.99,VWS V12.07,2013-06-15 00:02:00,
2013-06-14 20:31:00,58.5,55.3,26.80,NW,320,0.0,0.0,89,0.00,,,-99.99,VWS V12.07,2013-06-15 00:31:00,
2013-06-14 21:01:00,57.4,54.5,26.81,WNW,283,0.0,0.0,90,0.00,,,-99.99,VWS V12.07,2013-06-15 01:01:00,
2013-06-14 21:31:00,56.2,54.2,26.82,NNW,345,0.0,0.0,93,0.00,,,-99.99,VWS V12.07,2013-06-15 01:31:00,
2013-06-14 22:01:00,55.3,53.9,26.83,NNW,329,0.0,0.0,95,0.00,,,-99.99,VWS V12.07,2013-06-15 02:01:00,
2013-06-14 22:31:00,54.7,53.9,26.84,NNW,330,0.0,0.0,97,0.00,,,-99.99,VWS V12.07,2013-06-15 02:31:00,
2013-06-14 23:01:00,54.0,53.7,26.84,WSW,255,0.0,0.0,99,0.00,,,-99.99,VWS V12.07,2013-06-15 03:01:00,
2013-06-14 23:31:00,54.1,54.1,26.84,West,266,0.0,2.0,100,0.00,,,-99.99,VWS V12.07,2013-06-15 03:31:00,